CZ-3B DEB, 40158

Orbit data source: Space-Track

CZ-3B DEB, 40158 is space debris in HEO originally from a launch on Sat, 04 Sep 2010 UTC launched from the Xichang Space Center, China (XSC). Debris objects in space refer to the collection of defunct objects orbiting the Earth. Examples of debris include non-operational satellites, rocket bodies, and fragments generated from explosions, collisions, or faulty payload assembly.

Loading next visibility...
Identifier
40158, 2010-042K
Orbit
HEO
Country
Flag of CNCN / PRC
Related business
Manufacturer
CALT
Mission
Spacecraft
Bus & Motor
Unknown
Mass
Unknown
Launch date (UTC)
2010-09-04 (16 years ago)
Launch vehicle
Unknown
Launch site
Xichang Space Center, China (XSC)
Object type
Payload
Rocket body
Debris
Shape & HBR
Unknown shape, 0.2 m
Radar Cross Section
Medium (>0.1 m² and <1 m²)

Expand to show TLE details & history
Last TLE update: 1 day ago

TLE from 1 day ago
0 CZ-3B DEB
1 40158U 10042K   26191.21557020 -.00000024  00000-0  00000-0 0  9993
2 40158  25.3512 209.3420 7350234  90.2758 357.9776  1.88758169 87184
Epoch: 2026-07-10T05:10Z
TLE epoch observation values (Epoch: 2026-07-10T05:10:25.265Z)
Latitude
24.07765°
Longitude
-86.51097°
Altitude
1,092.442 km
Speed
9.609 km/s
True Right ascension
18h 36m 57s
True Declination
23° 57' 20"
Sunlit
Object was in full shadow at epoch
Visualization orbit readout
Latitude
Unknown
Longitude
Unknown
Altitude
Unknown
Speed
Unknown
Apparent Right ascension
Unknown
Apparent Declination
Unknown
Sunlit
N/A
Visualization observer readout
Local Sidereal Time
03:11:57
Azimuth
Unknown
Elevation
Unknown
Doppler factor
Unknown
Orbital elements
Apogee altitude
41,613.081 km
Perigee altitude
951.188 km
Semi-major axis
27,660.271 km
Eccentricity
0.73502
Inclination
25.3512°
RAAN
209.342°
Arg. of periapsis
90.2758°
True anomaly
340.78003°
Mean anomaly
357.9776°
Eccentric anomaly
352.4287°
Mean motion
0.4718 °/min
Orbital period
763.03 mins
BSTAR
0
Loading maneuver chart data...
Computing Atmospheric mass density...
Loading historical data...
Loading historical data...
Loading historical data...
Loading historical data...
Loading historical data...
Loading historical data...
Loading historical data...

Documentation

Showing up to 5 results
|